QPF
0.07 0.09 0.10 0.11 0.10 0.11 0.10 0.08 0.05 0.04 0.03 0.03 0.03 0.04 0.04 0.02 0.02 0.03 0.03 0.04 0.06 0.07 0.08 0.06 0.04 0.04 0.03 0.03 0.03 0.03 0.04 0.05 0.04 0.04 0.04 0.04 0.04 0.04 0.04 0.03 0.03 0.03 0.03
0.12 0.14 0.16 0.14 0.14 0.13 0.11 0.10 0.08 0.08 0.06 0.05 0.06 0.06 0.05 0.03 0.03 0.04 0.04 0.05 0.07 0.07 0.08 0.08 0.06 0.07 0.07 0.07 0.06 0.06 0.06 0.05 0.04 0.04 0.04 0.04 0.04 0.03 0.04 0.04 0.04 0.04 0.04
0.19 0.18 0.22 0.22 0.20 0.17 0.15 0.12 0.10 0.08 0.09 0.08 0.09 0.09 0.08 0.06 0.08 0.09 0.11 0.11 0.10 0.08 0.08 0.10 0.10 0.10 0.12 0.12 0.09 0.07 0.05 0.04 0.04 0.04 0.04 0.03 0.03 0.03 0.02 0.03 0.03 0.04 0.04
0.22 0.25 0.25 0.23 0.22 0.24 0.22 0.19 0.15 0.13 0.13 0.14 0.13 0.11 0.10 0.11 0.15 0.17 0.16 0.14 0.12 0.11 0.11 0.12 0.13 0.12 0.11 0.10 0.09 0.08 0.06 0.04 0.04 0.03 0.02 0.02 0.02 0.02 0.02 0.02 0.02 0.02 0.03
0.22 0.21 0.23 0.22 0.24 0.26 0.25 0.22 0.19 0.19 0.19 0.18 0.17 0.15 0.14 0.15 0.15 0.16 0.17 0.15 0.13 0.13 0.14 0.14 0.13 0.09 0.09 0.09 0.09 0.08 0.07 0.05 0.03 0.02 0.03 0.03 0.03 0.02 0.02 0.01 0.01 0.01 0.02
0.23 0.23 0.22 0.22 0.26 0.29 0.29 0.26 0.24 0.24 0.24 0.22 0.18 0.18 0.19 0.18 0.16 0.14 0.14 0.13 0.11 0.12 0.12 0.11 0.10 0.07 0.06 0.05 0.06 0.07 0.07 0.05 0.03 0.02 0.02 0.02 0.02 0.02 0.01 0.01 0.01 0.01 0.01
0.27 0.28 0.24 0.21 0.26 0.30 0.32 0.32 0.31 0.31 0.25 0.22 0.19 0.16 0.16 0.16 0.15 0.13 0.11 0.09 0.08 0.08 0.09 0.09 0.10 0.08 0.05 0.03 0.02 0.03 0.04 0.03 0.02 0.02 0.02 0.02 0.02 0.01 0.01 0.01 0.01 0.01 0.01
0.23 0.27 0.28 0.28 0.33 0.35 0.38 0.38 0.33 0.33 0.28 0.23 0.21 0.18 0.15 0.15 0.12 0.09 0.08 0.07 0.06 0.05 0.05 0.07 0.08 0.07 0.05 0.04 0.04 0.03 0.03 0.02 0.02 0.01 0.01 0.01 0.01 0.01 0.01 0.01 0.01 0.01 0.01
0.14 0.16 0.22 0.30 0.36 0.36 0.37 0.40 0.37 0.33 0.29 0.24 0.21 0.19 0.15 0.13 0.11 0.10 0.08 0.07 0.06 0.05 0.04 0.05 0.05 0.05 0.03 0.02 0.02 0.02 0.02 0.01 0.01 0.01 0.01 0.01 0.01 0.01 0.01 0.01 0.01 0.01 0.01
0.13 0.14 0.17 0.21 0.26 0.30 0.31 0.35 0.38 0.36 0.33 0.30 0.27 0.21 0.15 0.09 0.09 0.10 0.10 0.08 0.06 0.06 0.06 0.04 0.03 0.02 0.01 0.01 0.01 0.01 0.00 0.00 0.00 0.00 0.00 0.00 0.01 0.01 0.01 0.01 0.01 0.01 0.01
0.10 0.12 0.13 0.12 0.13 0.18 0.23 0.27 0.30 0.36 0.36 0.32 0.29 0.26 0.20 0.14 0.10 0.08 0.09 0.08 0.07 0.07 0.05 0.04 0.03 0.02 0.01 0.01 0.00 0.00 0.00 0.00 0.00 0.00 0.00 0.00 0.00 0.00 0.00 0.00 0.00 0.00 0.01
0.08 0.08 0.08 0.07 0.08 0.10 0.13 0.17 0.19 0.22 0.27 0.27 0.26 0.24 0.21 0.19 0.15 0.12 0.10 0.10 0.09 0.08 0.06 0.04 0.03 0.02 0.01 0.01 0.01 0.01 0.00 0.00 0.00 0.00 0.00 0.00 0.00 0.00 0.00 0.00 0.00 0.00 0.01
0.05 0.06 0.08 0.08 0.09 0.11 0.14 0.14 0.15 0.17 0.20 0.22 0.23 0.23 0.21 0.18 0.17 0.16 0.14 0.12 0.09 0.08 0.06 0.05 0.04 0.04 0.03 0.02 0.01 0.01 0.00 0.00 0.00 0.00 0.00 0.00 0.00 0.00 0.00 0.00 0.00 0.00 0.00
0.05 0.06 0.07 0.06 0.07 0.11 0.13 0.14 0.13 0.14 0.15 0.15 0.15 0.17 0.18 0.15 0.12 0.11 0.11 0.11 0.10 0.09 0.07 0.06 0.04 0.03 0.02 0.01 0.01 0.01 0.00 0.00 0.00 0.00 0.00 0.00 0.00 0.00 0.00 0.00 0.00 0.00 0.00
0.04 0.04 0.05 0.04 0.04 0.08 0.10 0.10 0.08 0.08 0.10 0.11 0.10 0.09 0.08 0.08 0.08 0.08 0.08 0.08 0.08 0.08 0.06 0.04 0.02 0.01 0.01 0.01 0.01 0.01 0.00 0.00 0.00 0.00 0.00 0.00 0.00 0.00 0.00 0.00 0.00 0.00 0.00
0.03 0.02 0.02 0.02 0.02 0.03 0.04 0.06 0.06 0.04 0.04 0.04 0.04 0.04 0.04 0.04 0.04 0.04 0.06 0.06 0.05 0.04 0.04 0.03 0.02 0.01 0.01 0.00 0.01 0.00 0.00 0.00 0.00 0.00 0.00 0.00 0.00 0.00 0.00 0.00 0.00 0.00 0.00
0.01 0.02 0.01 0.01 0.01 0.01 0.01 0.02 0.03 0.02 0.02 0.01 0.01 0.01 0.01 0.02 0.02 0.02 0.03 0.04 0.04 0.03 0.03 0.02 0.01 0.01 0.00 0.00 0.00 0.00 0.00 0.00 0.00 0.00 0.00 0.00 0.00 0.00 0.00 0.00 0.00 0.00 0.00
0.01 0.01 0.01 0.01 0.01 0.01 0.01 0.01 0.01 0.01 0.00 0.00 0.00 0.00 0.00 0.00 0.01 0.01 0.01 0.01 0.01 0.01 0.01 0.01 0.01 0.00 0.00 0.00 0.00 0.00 0.00 0.00 0.00 0.00 0.00 0.00 0.00 0.00 0.00 0.00 0.00 0.00 0.00
0.01 0.01 0.02 0.02 0.02 0.01 0.01 0.00 0.00 0.00 0.00 0.00 0.00 0.00 0.00 0.00 0.00 0.00 0.00 0.00 0.00 0.00 0.00 0.00 0.00 0.00 0.00 0.00 0.00 0.00 0.00 0.00 0.00 0.00 0.00 0.00 0.00 0.00 0.00 0.00 0.00 0.00 0.00
0.02 0.02 0.01 0.02 0.01 0.01 0.00 0.00 0.00 0.00 0.00 0.00 0.00 0.00 0.00 0.00 0.00 0.00 0.00 0.00 0.00 0.00 0.00 0.00 0.00 0.00 0.00 0.00 0.00 0.00 0.00 0.00 0.00 0.00 0.00 0.00 0.00 0.00 0.00 0.00 0.00 0.00 0.00
0.02 0.01 0.01 0.01 0.01 0.00 0.00 0.00 0.00 0.00 0.00 0.00 0.00 0.00 0.00 0.00 0.00 0.00 0.00 0.00 0.00 0.00 0.00 0.00 0.00 0.00 0.00 0.00 0.00 0.00 0.00 0.00 0.00 0.00 0.00 0.00 0.00 0.00 0.00 0.00 0.00 0.00 0.00
0.01 0.01 0.01 0.00 0.00 0.00 0.00 0.00 0.00 0.00 0.00 0.00 0.00 0.00 0.00 0.00 0.00 0.00 0.00 0.00 0.00 0.00 0.00 0.00 0.00 0.00 0.00 0.00 0.00 0.00 0.00 0.00 0.00 0.00 0.00 0.00 0.00 0.00 0.00 0.00 0.00 0.00 0.00
0.00 0.00 0.00 0.00 0.00 0.00 0.00 0.00 0.00 0.00 0.00 0.00 0.00 0.00 0.00 0.00 0.00 0.00 0.00 0.00 0.00 0.00 0.00 0.00 0.00 0.00 0.00 0.00 0.00 0.00 0.00 0.00 0.00 0.00 0.00 0.00 0.00 0.00 0.00 0.00 0.00 0.00 0.00
0.01 0.00 0.00 0.00 0.00 0.00 0.00 0.00 0.00 0.00 0.00 0.00 0.00 0.00 0.00 0.00 0.00 0.00 0.00 0.00 0.00 0.00 0.00 0.00 0.00 0.00 0.00 0.00 0.00 0.00 0.00 0.00 0.00 0.00 0.00 0.00 0.00 0.00 0.00 0.00 0.00 0.00 0.00
0.00 0.00 0.00 0.00 0.00 0.00 0.00 0.00 0.00 0.00 0.00 0.00 0.00 0.00 0.00 0.00 0.00 0.00 0.00 0.00 0.00 0.00 0.00 0.00 0.00 0.00 0.00 0.00 0.00 0.00 0.00 0.00 0.00 0.00 0.00 0.00 0.00 0.00 0.00 0.00 0.00 0.00 0.00
0.00 0.00 0.00 0.00 0.00 0.00 0.00 0.00 0.00 0.00 0.00 0.00 0.00 0.00 0.00 0.00 0.00 0.00 0.00 0.00 0.00 0.00 0.00 0.00 0.00 0.00 0.00 0.00 0.00 0.00 0.00 0.00 0.00 0.00 0.00 0.00 0.00 0.00 0.00 0.00 0.00 0.00 0.00
MSLP
1016.31 1016.46 1016.57 1016.68 1016.81 1016.97 1017.18 1017.43 1017.70 1017.95 1018.16 1018.31 1018.40 1018.43 1018.43 1018.42 1018.42 1018.46 1018.56 1018.71 1018.92 1019.17 1019.43 1019.70 1019.95 1020.18 1020.37 1020.51 1020.62 1020.70 1020.75 1020.80 1020.86 1020.95 1021.08 1021.25 1021.45 1021.67 1021.90 1022.10 1022.26 1022.37 1022.42
1015.77 1015.89 1016.01 1016.16 1016.36 1016.61 1016.92 1017.27 1017.63 1017.97 1018.26 1018.48 1018.61 1018.68 1018.68 1018.66 1018.64 1018.64 1018.69 1018.80 1018.98 1019.20 1019.46 1019.74 1020.02 1020.28 1020.51 1020.69 1020.83 1020.92 1020.99 1021.04 1021.11 1021.20 1021.34 1021.52 1021.74 1021.98 1022.22 1022.44 1022.61 1022.72 1022.77
1015.12 1015.21 1015.34 1015.54 1015.82 1016.18 1016.60 1017.07 1017.55 1018.00 1018.39 1018.69 1018.90 1019.02 1019.07 1019.06 1019.03 1019.01 1019.02 1019.07 1019.19 1019.37 1019.60 1019.87 1020.16 1020.44 1020.70 1020.91 1021.09 1021.21 1021.31 1021.38 1021.46 1021.57 1021.71 1021.90 1022.12 1022.37 1022.62 1022.85 1023.02 1023.14 1023.20
1014.46 1014.50 1014.64 1014.88 1015.24 1015.70 1016.23 1016.82 1017.41 1017.97 1018.47 1018.88 1019.18 1019.38 1019.49 1019.53 1019.52 1019.50 1019.48 1019.51 1019.58 1019.70 1019.89 1020.12 1020.39 1020.67 1020.95 1021.19 1021.40 1021.57 1021.70 1021.81 1021.91 1022.03 1022.18 1022.37 1022.59 1022.83 1023.07 1023.29 1023.46 1023.58 1023.65
1013.86 1013.86 1013.99 1014.27 1014.68 1015.21 1015.83 1016.51 1017.19 1017.84 1018.43 1018.93 1019.34 1019.64 1019.84 1019.96 1020.02 1020.04 1020.04 1020.04 1020.08 1020.17 1020.31 1020.50 1020.73 1021.00 1021.27 1021.54 1021.78 1021.98 1022.15 1022.29 1022.43 1022.56 1022.72 1022.90 1023.10 1023.32 1023.53 1023.73 1023.90 1024.01 1024.08
1013.41 1013.37 1013.49 1013.78 1014.22 1014.78 1015.44 1016.15 1016.87 1017.57 1018.22 1018.80 1019.29 1019.70 1020.02 1020.26 1020.42 1020.52 1020.58 1020.63 1020.67 1020.73 1020.84 1020.99 1021.19 1021.43 1021.69 1021.96 1022.21 1022.44 1022.65 1022.83 1022.98 1023.13 1023.28 1023.44 1023.62 1023.80 1023.99 1024.15 1024.30 1024.40 1024.47
1013.17 1013.10 1013.21 1013.48 1013.91 1014.46 1015.09 1015.78 1016.48 1017.17 1017.83 1018.45 1019.01 1019.52 1019.97 1020.35 1020.65 1020.88 1021.05 1021.17 1021.26 1021.35 1021.45 1021.58 1021.75 1021.96 1022.20 1022.45 1022.71 1022.96 1023.18 1023.38 1023.55 1023.70 1023.84 1023.99 1024.13 1024.27 1024.41 1024.54 1024.65 1024.73 1024.79
1013.19 1013.09 1013.18 1013.42 1013.80 1014.29 1014.85 1015.45 1016.07 1016.69 1017.31 1017.92 1018.52 1019.11 1019.67 1020.19 1020.65 1021.04 1021.36 1021.61 1021.80 1021.95 1022.08 1022.22 1022.38 1022.57 1022.78 1023.02 1023.26 1023.51 1023.73 1023.93 1024.10 1024.25 1024.38 1024.50 1024.60 1024.70 1024.79 1024.88 1024.95 1025.00 1025.04
1013.45 1013.36 1013.42 1013.62 1013.93 1014.32 1014.76 1015.23 1015.71 1016.22 1016.74 1017.29 1017.89 1018.51 1019.16 1019.81 1020.43 1020.99 1021.48 1021.89 1022.22 1022.47 1022.68 1022.86 1023.04 1023.22 1023.41 1023.62 1023.84 1024.06 1024.27 1024.45 1024.61 1024.75 1024.86 1024.95 1025.03 1025.09 1025.14 1025.18 1025.21 1025.23 1025.24
1013.93 1013.84 1013.89 1014.04 1014.27 1014.55 1014.85 1015.16 1015.48 1015.83 1016.22 1016.68 1017.22 1017.84 1018.53 1019.27 1020.02 1020.74 1021.40 1021.98 1022.47 1022.87 1023.18 1023.44 1023.65 1023.85 1024.03 1024.22 1024.41 1024.59 1024.76 1024.92 1025.06 1025.18 1025.27 1025.35 1025.40 1025.44 1025.46 1025.47 1025.47 1025.46 1025.43
1014.55 1014.48 1014.51 1014.62 1014.77 1014.94 1015.10 1015.26 1015.42 1015.60 1015.84 1016.18 1016.63 1017.20 1017.89 1018.67 1019.50 1020.34 1021.15 1021.89 1022.54 1023.08 1023.53 1023.89 1024.17 1024.40 1024.59 1024.76 1024.91 1025.05 1025.18 1025.30 1025.41 1025.51 1025.60 1025.67 1025.72 1025.75 1025.77 1025.76 1025.74 1025.70 1025.65
1015.24 1015.19 1015.21 1015.27 1015.36 1015.43 1015.49 1015.51 1015.53 1015.57 1015.67 1015.87 1016.21 1016.70 1017.34 1018.10 1018.96 1019.87 1020.78 1021.65 1022.44 1023.13 1023.71 1024.17 1024.54 1024.82 1025.03 1025.19 1025.31 1025.41 1025.50 1025.58 1025.66 1025.75 1025.83 1025.91 1025.98 1026.03 1026.06 1026.07 1026.04 1025.99 1025.91
1015.94 1015.89 1015.89 1015.93 1015.96 1015.97 1015.95 1015.88 1015.80 1015.73 1015.71 1015.80 1016.02 1016.41 1016.96 1017.67 1018.50 1019.42 1020.38 1021.32 1022.21 1023.02 1023.72 1024.30 1024.75 1025.09 1025.33 1025.49 1025.59 1025.65 1025.70 1025.74 1025.80 1025.88 1025.98 1026.08 1026.19 1026.27 1026.34 1026.37 1026.35 1026.30 1026.22
1016.59 1016.53 1016.51 1016.52 1016.52 1016.50 1016.44 1016.33 1016.20 1016.07 1015.98 1015.98 1016.11 1016.38 1016.83 1017.44 1018.19 1019.06 1020.01 1020.98 1021.93 1022.82 1023.61 1024.29 1024.83 1025.23 1025.50 1025.67 1025.75 1025.79 1025.79 1025.81 1025.85 1025.92 1026.03 1026.17 1026.32 1026.46 1026.57 1026.64 1026.65 1026.61 1026.53
1017.18 1017.09 1017.04 1017.03 1017.01 1016.98 1016.92 1016.82 1016.69 1016.56 1016.45 1016.40 1016.45 1016.63 1016.96 1017.45 1018.10 1018.88 1019.77 1020.71 1021.67 1022.60 1023.45 1024.20 1024.81 1025.26 1025.57 1025.75 1025.83 1025.83 1025.81 1025.80 1025.82 1025.89 1026.02 1026.19 1026.38 1026.57 1026.73 1026.84 1026.89 1026.87 1026.79
1017.74 1017.60 1017.52 1017.47 1017.44 1017.42 1017.39 1017.33 1017.25 1017.15 1017.07 1017.01 1017.03 1017.13 1017.37 1017.74 1018.26 1018.93 1019.72 1020.59 1021.52 1022.44 1023.32 1024.10 1024.75 1025.25 1025.59 1025.77 1025.84 1025.83 1025.79 1025.74 1025.75 1025.81 1025.95 1026.14 1026.36 1026.59 1026.79 1026.93 1027.00 1027.01 1026.94
1018.30 1018.11 1017.98 1017.90 1017.86 1017.86 1017.87 1017.87 1017.86 1017.84 1017.81 1017.78 1017.79 1017.86 1018.02 1018.29 1018.69 1019.23 1019.90 1020.68 1021.53 1022.42 1023.28 1024.07 1024.74 1025.25 1025.60 1025.80 1025.86 1025.83 1025.76 1025.69 1025.67 1025.71 1025.84 1026.03 1026.26 1026.49 1026.71 1026.87 1026.95 1026.96 1026.90
1018.90 1018.66 1018.48 1018.38 1018.33 1018.35 1018.39 1018.46 1018.53 1018.59 1018.63 1018.66 1018.69 1018.75 1018.85 1019.04 1019.33 1019.75 1020.30 1020.97 1021.74 1022.55 1023.37 1024.13 1024.79 1025.31 1025.66 1025.85 1025.91 1025.87 1025.77 1025.68 1025.62 1025.63 1025.72 1025.88 1026.08 1026.30 1026.50 1026.64 1026.72 1026.72 1026.66
1019.56 1019.29 1019.09 1018.96 1018.91 1018.93 1019.01 1019.12 1019.26 1019.39 1019.50 1019.59 1019.66 1019.72 1019.80 1019.93 1020.13 1020.45 1020.89 1021.45 1022.11 1022.84 1023.59 1024.31 1024.93 1025.43 1025.78 1025.96 1026.01 1025.95 1025.84 1025.71 1025.62 1025.59 1025.62 1025.73 1025.87 1026.03 1026.17 1026.27 1026.32 1026.30 1026.22
1020.29 1020.03 1019.81 1019.67 1019.61 1019.63 1019.72 1019.87 1020.05 1020.23 1020.40 1020.53 1020.64 1020.71 1020.78 1020.88 1021.02 1021.26 1021.60 1022.06 1022.62 1023.25 1023.92 1024.57 1025.15 1025.61 1025.94 1026.11 1026.15 1026.09 1025.96 1025.81 1025.67 1025.59 1025.56 1025.59 1025.65 1025.72 1025.79 1025.81 1025.79 1025.73 1025.64
1021.07 1020.84 1020.64 1020.50 1020.43 1020.45 1020.53 1020.68 1020.87 1021.08 1021.28 1021.45 1021.58 1021.67 1021.74 1021.82 1021.93 1022.10 1022.36 1022.73 1023.19 1023.73 1024.30 1024.87 1025.39 1025.81 1026.11 1026.27 1026.31 1026.24 1026.11 1025.94 1025.77 1025.64 1025.54 1025.48 1025.45 1025.42 1025.38 1025.32 1025.23 1025.11 1024.98
1021.86 1021.69 1021.53 1021.40 1021.34 1021.34 1021.41 1021.54 1021.71 1021.91 1022.12 1022.30 1022.44 1022.55 1022.63 1022.69 1022.78 1022.91 1023.11 1023.40 1023.77 1024.21 1024.69 1025.17 1025.62 1025.99 1026.26 1026.41 1026.44 1026.38 1026.25 1026.08 1025.89 1025.72 1025.56 1025.43 1025.30 1025.17 1025.03 1024.87 1024.70 1024.51 1024.34
1022.62 1022.52 1022.41 1022.32 1022.26 1022.25 1022.30 1022.40 1022.54 1022.71 1022.89 1023.07 1023.21 1023.32 1023.40 1023.47 1023.54 1023.65 1023.80 1024.02 1024.30 1024.65 1025.04 1025.43 1025.80 1026.12 1026.35 1026.48 1026.52 1026.47 1026.35 1026.19 1026.00 1025.80 1025.61 1025.41 1025.21 1024.99 1024.76 1024.52 1024.27 1024.02 1023.81
1023.29 1023.28 1023.24 1023.19 1023.15 1023.13 1023.15 1023.21 1023.31 1023.44 1023.59 1023.74 1023.88 1023.99 1024.07 1024.15 1024.21 1024.29 1024.40 1024.56 1024.78 1025.04 1025.33 1025.63 1025.92 1026.17 1026.36 1026.47 1026.51 1026.47 1026.38 1026.24 1026.06 1025.87 1025.65 1025.42 1025.16 1024.89 1024.59 1024.28 1023.97 1023.67 1023.42
1023.87 1023.94 1023.96 1023.95 1023.93 1023.92 1023.92 1023.95 1024.01 1024.10 1024.21 1024.33 1024.45 1024.56 1024.65 1024.72 1024.79 1024.85 1024.93 1025.04 1025.19 1025.37 1025.57 1025.78 1025.99 1026.17 1026.30 1026.39 1026.42 1026.39 1026.32 1026.20 1026.05 1025.87 1025.66 1025.41 1025.14 1024.83 1024.50 1024.15 1023.80 1023.47 1023.18
1024.36 1024.49 1024.56 1024.60 1024.60 1024.59 1024.58 1024.58 1024.61 1024.67 1024.75 1024.85 1024.96 1025.06 1025.15 1025.23 1025.29 1025.34 1025.40 1025.47 1025.55 1025.65 1025.77 1025.90 1026.02 1026.12 1026.20 1026.25 1026.26 1026.23 1026.17 1026.08 1025.95 1025.79 1025.59 1025.36 1025.09 1024.78 1024.44 1024.07 1023.71 1023.36 1023.05
Thickness
5717 5717 5717 5715 5715 5714 5713 5713 5712 5712 5712 5712 5712 5712 5713 5713 5713 5713 5713 5713 5713 5712 5711 5710 5710 5708 5707 5707 5706 5705 5704 5703 5701 5700 5699 5698 5696 5695 5694 5693 5692 5692 5691
5713 5713 5713 5712 5711 5710 5709 5708 5708 5707 5707 5707 5707 5708 5708 5709 5709 5709 5709 5709 5709 5708 5707 5706 5706 5705 5704 5702 5701 5700 5699 5698 5696 5695 5694 5692 5691 5690 5689 5688 5687 5687 5686
5707 5708 5708 5707 5707 5706 5704 5703 5703 5703 5702 5702 5702 5702 5702 5703 5704 5703 5703 5703 5703 5703 5702 5701 5700 5699 5698 5697 5696 5695 5693 5692 5690 5688 5687 5685 5684 5683 5682 5682 5681 5680 5680
5702 5702 5703 5703 5703 5701 5700 5699 5699 5698 5697 5696 5695 5695 5696 5697 5697 5696 5696 5695 5696 5695 5695 5694 5693 5692 5691 5691 5689 5687 5686 5684 5682 5680 5679 5678 5676 5675 5674 5674 5673 5673 5672
5696 5697 5698 5699 5698 5697 5696 5695 5695 5693 5691 5689 5688 5687 5688 5688 5688 5688 5688 5688 5687 5687 5687 5686 5685 5685 5684 5683 5681 5679 5678 5675 5674 5672 5670 5669 5667 5666 5666 5665 5664 5664 5664
5691 5692 5693 5693 5693 5693 5692 5691 5690 5688 5686 5684 5682 5679 5677 5678 5678 5679 5679 5679 5678 5678 5677 5677 5676 5675 5674 5674 5672 5671 5669 5667 5665 5663 5662 5660 5658 5657 5656 5655 5655 5654 5654
5686 5686 5688 5689 5689 5689 5689 5687 5685 5682 5679 5678 5674 5669 5667 5668 5668 5668 5669 5669 5669 5668 5667 5666 5666 5665 5664 5663 5662 5661 5659 5657 5655 5653 5652 5650 5648 5647 5646 5645 5644 5643 5643
5679 5680 5681 5682 5684 5685 5684 5683 5682 5678 5675 5674 5671 5665 5660 5658 5658 5658 5659 5659 5658 5657 5656 5655 5655 5654 5653 5652 5650 5649 5648 5646 5645 5642 5641 5639 5638 5637 5635 5634 5633 5633 5632
5672 5672 5674 5676 5677 5678 5678 5678 5677 5675 5671 5669 5668 5665 5660 5656 5650 5647 5648 5648 5648 5647 5645 5644 5643 5642 5641 5640 5638 5637 5636 5635 5633 5631 5629 5628 5627 5626 5625 5624 5622 5621 5621
5663 5665 5666 5667 5669 5670 5671 5671 5670 5670 5669 5665 5662 5661 5661 5659 5651 5641 5638 5637 5637 5635 5634 5632 5631 5630 5629 5628 5626 5624 5623 5622 5621 5619 5618 5616 5615 5614 5613 5612 5611 5609 5608
5653 5655 5657 5658 5660 5661 5663 5664 5664 5663 5662 5660 5657 5655 5653 5650 5649 5644 5634 5628 5625 5623 5622 5621 5620 5619 5618 5617 5615 5613 5611 5610 5608 5607 5606 5605 5603 5602 5601 5600 5598 5597 5595
5642 5644 5647 5648 5649 5651 5652 5654 5655 5654 5653 5652 5651 5649 5648 5646 5643 5640 5633 5625 5618 5613 5612 5610 5609 5609 5608 5606 5605 5603 5601 5599 5597 5596 5594 5593 5591 5590 5588 5587 5585 5584 5582
5631 5632 5635 5637 5638 5640 5641 5642 5643 5642 5642 5642 5641 5640 5640 5639 5638 5636 5629 5619 5611 5604 5602 5600 5599 5598 5597 5596 5594 5592 5591 5589 5588 5586 5584 5582 5580 5578 5576 5574 5572 5570 5568
5619 5621 5624 5625 5627 5629 5630 5631 5631 5630 5630 5631 5630 5630 5629 5628 5629 5628 5623 5615 5604 5596 5594 5591 5589 5588 5587 5586 5584 5582 5581 5580 5578 5576 5574 5572 5569 5566 5564 5561 5559 5557 5555
5608 5610 5612 5614 5615 5617 5618 5619 5618 5617 5619 5618 5619 5619 5618 5617 5617 5616 5614 5610 5604 5594 5586 5582 5581 5579 5578 5576 5574 5572 5571 5569 5567 5566 5564 5561 5558 5555 5552 5549 5547 5544 5542
5596 5597 5599 5601 5602 5603 5605 5606 5605 5605 5606 5606 5606 5606 5605 5604 5604 5603 5601 5597 5596 5591 5581 5574 5571 5569 5568 5566 5565 5563 5561 5559 5558 5556 5553 5551 5548 5545 5541 5538 5535 5533 5530
5583 5584 5586 5587 5588 5589 5590 5591 5592 5592 5592 5592 5592 5593 5592 5591 5591 5589 5588 5586 5584 5581 5574 5565 5561 5559 5557 5556 5554 5553 5551 5550 5548 5545 5543 5541 5538 5535 5532 5529 5526 5523 5520
5571 5572 5573 5574 5575 5575 5577 5578 5579 5578 5579 5578 5578 5579 5579 5579 5577 5576 5576 5573 5571 5568 5566 5558 5552 5549 5547 5545 5543 5542 5541 5539 5538 5536 5534 5531 5529 5526 5523 5520 5517 5515 5512
5558 5559 5560 5561 5561 5562 5564 5564 5565 5565 5565 5565 5565 5566 5565 5566 5564 5563 5562 5560 5558 5556 5552 5548 5541 5537 5536 5534 5533 5532 5530 5529 5528 5526 5525 5522 5520 5517 5515 5512 5510 5507 5505
5546 5547 5548 5548 5549 5550 5551 5552 5552 5552 5552 5552 5552 5552 5552 5552 5551 5551 5550 5547 5545 5542 5539 5536 5531 5527 5525 5523 5521 5520 5520 5518 5517 5516 5515 5514 5512 5510 5508 5506 5504 5501 5499
5534 5535 5536 5537 5538 5539 5540 5540 5540 5540 5540 5540 5540 5540 5540 5540 5540 5540 5538 5535 5533 5530 5527 5524 5520 5518 5516 5514 5512 5509 5509 5508 5508 5507 5507 5506 5505 5504 5502 5500 5499 5497 5494
5523 5524 5525 5526 5527 5527 5529 5529 5530 5529 5529 5529 5528 5528 5529 5528 5528 5527 5526 5525 5523 5520 5517 5514 5511 5509 5507 5504 5502 5501 5500 5501 5502 5499 5498 5499 5498 5498 5497 5496 5494 5493 5491
5514 5514 5515 5516 5516 5516 5518 5518 5519 5518 5517 5517 5517 5517 5517 5516 5516 5516 5515 5514 5512 5510 5508 5506 5503 5501 5499 5498 5496 5495 5493 5493 5493 5492 5491 5494 5493 5493 5493 5492 5491 5489 5487
5505 5504 5505 5506 5506 5507 5508 5509 5509 5508 5507 5506 5506 5506 5506 5505 5506 5506 5505 5504 5502 5500 5499 5497 5496 5494 5493 5491 5489 5487 5486 5485 5486 5486 5484 5487 5488 5488 5489 5488 5488 5486 5485
5497 5497 5497 5497 5498 5498 5499 5500 5500 5499 5497 5496 5496 5497 5497 5497 5497 5497 5496 5495 5494 5493 5492 5491 5490 5489 5488 5487 5484 5482 5482 5484 5485 5484 5481 5481 5483 5483 5484 5485 5485 5484 5483
5490 5491 5490 5490 5490 5490 5491 5492 5492 5491 5490 5489 5489 5489 5489 5489 5490 5489 5489 5488 5487 5486 5485 5486 5485 5485 5484 5483 5481 5479 5479 5479 5479 5480 5479 5477 5479 5478 5481 5483 5482 5482 5481